AMOS-17

Last updated on Nov. 16, 2019, 4:19 a.m. UTC

1 44479U 19050A   19318.82492895  .00000143  00000-0  00000-0 0  9990
2 44479   0.0421  73.6359 0000742 104.7897 187.2294  1.00566537  1084
UTC
Height (km)
Latitude
Longitude
Inclination
Orbital Period
UTC large
Height (km)
Speed (km/s)
/
Latitude / Longitude
Inclination (degrees)
Orbital Period (minutes)
Azimuth
Elevation
Range (km)
Doppler Factor
iOS Compass Heading
iOS Angle

Next 30 passes for location: Hong Kong

Rise time Rise Azimuth (degrees) Set time Set Azimuth (degrees) Duration Max altitude (degrees)

No matching passes for this satellites